Date String (YYYY-MM-DD hh:mm:ss) UTC,Instrument flags,Ambient pressure (hPa),Sample flow (lpm),Bypass flow (lpm),Sample temperature (°C),Ambient temperature (°C),ASC tube jacket temperature (°C),LED temperature (°C),Box temperature (°C),Sample RH (%),Span deviation,Mass concentration (μg/m³),Mass concentration (μg/m³),Mass concentration (μg/m³)
DateTimeUTC,F1_M11,P_M11,Q1_M11,Q2_M11,T1_M11,T2_M11,T3_M11,T4_M11,T5_M11,U1_M11,ZSPAN_M11,X0_M11,X2_M11,X1_M11
2022-02-14 06:00:00,,0829.2,4.99,0.00,23.4,22.6,00.0,32.4,25.1,05.7,0000.0,0002.74,0000.89,0000.55
2022-02-14 06:01:00,,0829.2,5.01,0.00,23.4,22.6,00.0,32.4,25.1,05.7,0000.0,0002.63,0000.86,0000.55
2022-02-14 06:02:00,,0829.3,4.99,0.00,23.3,22.6,00.0,32.4,25.1,05.7,0000.0,0002.35,0000.82,0000.55
2022-02-14 06:03:00,,0829.2,5.01,0.00,23.3,22.6,00.0,32.4,25.0,05.7,0000.0,0001.64,0000.82,0000.55
2022-02-14 06:04:00,,0829.2,4.99,0.00,23.3,22.6,00.0,32.4,25.0,05.7,0000.0,0001.65,0000.83,0000.56
2022-02-14 06:05:00,,0829.4,5.01,0.00,23.3,22.6,00.0,32.4,25.0,05.8,0000.0,0001.66,0000.84,0000.57
2022-02-14 06:06:00,,0829.4,4.99,0.00,23.3,22.6,00.0,32.3,25.0,06.0,0000.0,0001.70,0000.85,0000.57
2022-02-14 06:07:00,,0829.3,5.02,0.00,23.3,22.6,00.0,32.3,25.0,06.1,0000.0,0001.70,0000.86,0000.57
2022-02-14 06:08:00,,0829.3,4.99,0.00,23.3,22.6,00.0,32.3,25.0,06.0,0000.0,0001.68,0000.87,0000.57
2022-02-14 06:09:00,,0829.7,5.00,0.00,23.3,22.6,00.0,32.3,25.0,06.0,0000.0,0001.69,0000.90,0000.57
2022-02-14 06:10:00,,0829.3,5.02,0.00,23.3,22.7,00.0,32.3,25.0,06.0,0000.0,0001.64,0000.90,0000.57
2022-02-14 06:11:00,,0829.2,4.99,0.00,23.3,22.7,00.0,32.3,25.1,05.9,0000.0,0001.55,0000.89,0000.58
2022-02-14 06:12:00,,0829.2,5.01,0.00,23.4,22.7,00.0,32.3,25.1,05.9,0000.0,0001.64,0000.91,0000.57
2022-02-14 06:13:00,,0829.3,4.99,0.00,23.4,22.7,00.0,32.3,25.1,05.9,0000.0,0001.64,0000.92,0000.57
2022-02-14 06:14:00,,0829.3,4.99,0.00,23.3,22.7,00.0,32.3,25.1,05.9,0000.0,0001.61,0000.89,0000.56
2022-02-14 06:15:00,,0829.2,5.02,0.00,23.4,22.7,00.0,32.3,25.1,05.9,0000.0,0001.64,0000.87,0000.55
2022-02-14 06:16:00,,0829.2,5.00,0.00,23.4,22.7,00.0,32.3,25.1,05.9,0000.0,0001.57,0000.85,0000.54
2022-02-14 06:17:00,,0829.3,5.00,0.00,23.4,22.7,00.0,32.3,25.1,05.8,0000.0,0001.50,0000.83,0000.54
2022-02-14 06:18:00,,0829.3,5.01,0.00,23.4,22.7,00.0,32.4,25.1,05.8,0000.0,0001.51,0000.85,0000.54
2022-02-14 06:19:00,,0829.3,5.01,0.00,23.3,22.6,00.0,32.4,25.1,05.8,0000.0,0001.58,0000.88,0000.55
2022-02-14 06:20:00,,0829.4,4.99,0.00,23.3,22.6,00.0,32.3,25.0,05.8,0000.0,0001.46,0000.84,0000.55
2022-02-14 06:21:00,,0829.3,5.01,0.00,23.3,22.5,00.0,32.3,25.0,05.8,0000.0,0001.47,0000.82,0000.55
2022-02-14 06:22:00,,0829.3,4.98,0.00,23.2,22.5,00.0,32.3,24.9,05.7,0000.0,0001.49,0000.82,0000.55
2022-02-14 06:23:00,,0829.3,5.01,0.00,23.2,22.4,00.0,32.3,24.9,05.7,0000.0,0001.64,0000.85,0000.55
2022-02-14 06:24:00,,0829.4,4.98,0.00,23.2,22.4,00.0,32.3,24.9,05.7,0000.0,0001.62,0000.84,0000.56
2022-02-14 06:25:00,,0829.4,5.01,0.00,23.2,22.4,00.0,32.3,24.9,05.8,0000.0,0001.64,0000.87,0000.56
2022-02-14 06:26:00,,0829.3,5.00,0.00,23.2,22.4,00.0,32.2,24.8,05.9,0000.0,0001.61,0000.88,0000.57
2022-02-14 06:27:00,,0829.3,4.99,0.00,23.2,22.4,00.0,32.2,24.8,05.9,0000.0,0001.68,0000.92,0000.57
2022-02-14 06:28:00,,0829.3,5.00,0.00,23.2,22.5,00.0,32.2,24.9,06.0,0000.0,0001.77,0000.96,0000.58
2022-02-14 06:29:00,,0829.4,5.01,0.00,23.2,22.5,00.0,32.2,24.9,06.3,0000.0,0001.76,0000.93,0000.58
2022-02-14 06:30:00,,0829.3,4.99,0.00,23.2,22.5,00.0,32.2,24.9,06.2,0000.0,0001.64,0000.88,0000.57
2022-02-14 06:31:00,,0829.4,5.01,0.00,23.2,22.5,00.0,32.2,24.9,06.5,0000.0,0001.71,0000.89,0000.57
2022-02-14 06:32:00,,0829.4,4.99,0.00,23.2,22.6,00.0,32.2,24.9,06.4,0000.0,0002.07,0000.92,0000.57
2022-02-14 06:33:00,,0829.4,5.01,0.00,23.2,22.6,00.0,32.2,25.0,06.2,0000.0,0002.10,0000.91,0000.57
2022-02-14 06:34:00,,0829.5,4.99,0.00,23.3,22.6,00.0,32.2,25.0,06.1,0000.0,0001.88,0000.87,0000.57
2022-02-14 06:35:00,,0829.5,5.01,0.00,23.3,22.6,00.0,32.2,25.0,06.1,0000.0,0001.94,0000.89,0000.57
2022-02-14 06:36:00,,0829.5,4.98,0.00,23.3,22.6,00.0,32.3,25.0,06.2,0000.0,0001.95,0000.89,0000.57
2022-02-14 06:37:00,,0829.5,5.02,0.00,23.3,22.6,00.0,32.3,25.0,06.1,0000.0,0001.87,0000.86,0000.57
2022-02-14 06:38:00,,0829.4,5.00,0.00,23.3,22.6,00.0,32.3,25.0,06.1,0000.0,0001.83,0000.83,0000.56
2022-02-14 06:39:00,,0829.3,5.01,0.00,23.3,22.6,00.0,32.3,25.0,06.1,0000.0,0001.84,0000.82,0000.56
2022-02-14 06:40:00,,0829.2,5.00,0.00,23.3,22.6,00.0,32.3,25.0,06.1,0000.0,0001.96,0000.86,0000.57
2022-02-14 06:41:00,,0829.3,5.00,0.00,23.3,22.6,00.0,32.3,25.0,06.1,0000.0,0002.05,0000.89,0000.57
2022-02-14 06:42:00,,0829.4,5.02,0.00,23.3,22.6,00.0,32.3,25.0,06.1,0000.0,0002.04,0000.91,0000.58
2022-02-14 06:43:00,,0829.5,4.99,0.00,23.3,22.6,00.0,32.3,25.0,06.2,0000.0,0001.76,0000.91,0000.58
2022-02-14 06:44:00,,0829.5,5.01,0.00,23.3,22.6,00.0,32.3,25.0,06.2,0000.0,0001.66,0000.91,0000.59
2022-02-14 06:45:00,,0829.5,4.99,0.00,23.3,22.6,00.0,32.3,25.0,06.1,0000.0,0001.70,0000.92,0000.58
2022-02-14 06:46:00,,0829.5,5.01,0.00,23.3,22.6,00.0,32.3,25.0,06.0,0000.0,0001.65,0000.90,0000.59
2022-02-14 06:47:00,,0829.5,4.99,0.00,23.3,22.6,00.0,32.3,25.1,05.9,0000.0,0001.73,0000.94,0000.60
2022-02-14 06:48:00,,0829.5,5.00,0.00,23.3,22.6,00.0,32.3,25.0,05.9,0000.0,0001.84,0000.99,0000.61
2022-02-14 06:49:00,,0829.5,5.01,0.00,23.3,22.6,00.0,32.3,25.0,06.0,0000.0,0001.85,0001.01,0000.62
2022-02-14 06:50:00,,0829.4,4.99,0.00,23.3,22.6,00.0,32.3,25.1,05.9,0000.0,0001.78,0000.99,0000.63
2022-02-14 06:51:00,,0829.4,5.00,0.00,23.3,22.6,00.0,32.3,25.1,06.0,0000.0,0001.77,0000.97,0000.63
2022-02-14 06:52:00,,0829.4,5.00,0.00,23.3,22.6,00.0,32.3,25.1,06.0,0000.0,0001.77,0000.97,0000.63
2022-02-14 06:53:00,,0829.4,5.00,0.00,23.3,22.6,00.0,32.3,25.1,05.9,0000.0,0001.98,0000.98,0000.64
2022-02-14 06:54:00,,0829.4,5.01,0.00,23.3,22.6,00.0,32.3,25.1,05.9,0000.0,0001.92,0000.98,0000.63
2022-02-14 06:55:00,,0829.4,5.00,0.00,23.3,22.6,00.0,32.3,25.0,05.9,0000.0,0001.96,0001.01,0000.64
2022-02-14 06:56:00,,0829.3,4.99,0.00,23.3,22.6,00.0,32.3,25.0,05.9,0000.0,0001.95,0001.01,0000.65
2022-02-14 06:57:00,,0829.4,5.00,0.00,23.3,22.6,00.0,32.3,25.0,05.9,0000.0,0001.93,0001.01,0000.66
2022-02-14 06:58:00,,0829.3,5.00,0.00,23.3,22.6,00.0,32.3,25.1,05.9,0000.0,0001.85,0000.99,0000.65
2022-02-14 06:59:00,,0829.3,5.00,0.00,23.3,22.6,00.0,32.3,25.1,05.9,0000.0,0001.92,0000.99,0000.64
